Retour au catalogue

TOMORROW-S5

ActifMétéoSSO
NORAD 63234·PAYLOAD·🇺🇸 United States

Lancé Mar 15, 2025 depuis Vandenberg Space Force Base

Loading…

Prochains Passages (prochaines 24 heures)

TLE

FraisSource: Space-Track

Époque: Sep 14, 2026, 12:08 UTC

1 63234U 25052AA  26257.50610777  .00003787  00000-0  16340-3 0  9999
2 63234  97.3848 148.7795 0006278 183.0069 177.1131 15.23117789 83433

Suivez TOMORROW-S5 en temps réel avec AllMySat

Download on the App Store